FW8085 Weather Reports


time (UTC)temp
C
wind
direction
speed
KPH
gust
KPH
rain 1hr
cm
rain 24hr
cm
rain mn
cm
humidity
%
barometer
mb
20260505041546 11 271 0.0 8.0 0.00 0.36 0.00 98 1009.8
20260505040016 11 243 1.6 8.0 0.00 0.38 0.00 98 1009.9
20260505034556 11 288 1.6 6.4 0.00 0.38 0.00 98 1010.0
20260505033042 11 265 1.6 6.4 0.00 0.38 0.00 98 1010.2
20260505031515 12 10 0.0 4.8 0.00 0.38 0.00 98 1010.3
20260505024541 12 350 0.0 3.2 0.00 0.38 0.00 98 1010.5
20260505023011 12 336 4.8 11.3 0.00 0.38 0.00 98 1010.6
20260505021549 12 336 1.6 3.2 0.00 0.38 0.00 98 1010.5
20260505020028 11 210 0.0 3.2 0.00 0.38 0.00 98 1010.5
20260505014519 11 210 0.0 1.6 0.00 0.38 0.00 98 1010.4
20260505013054 11 210 1.6 3.2 0.00 0.38 0.00 97 1010.4
20260505011530 11 210 1.6 3.2 0.00 0.38 0.00 97 1010.4
20260505010002 11 210 1.6 3.2 0.00 0.38 0.00 97 1010.4
20260505004546 11 210 0.0 0.0 0.00 0.38 0.00 97 1010.6
20260505003017 11 210 0.0 0.0 0.00 0.38 0.00 96 1010.8
20260505001507 11 210 0.0 0.0 0.00 0.38 0.00 96 1010.8
20260505000046 11 210 0.0 3.2 0.00 0.38 0.00 97 1011.0
20260504234528 11 210 0.0 1.6 0.00 0.38 0.00 97 1011.1
20260504233014 11 210 0.0 3.2 0.00 0.38 0.00 97 1011.2
20260504231554 11 210 0.0 3.2 0.00 0.38 0.00 97 1011.3
20260504230027 11 210 0.0 1.6 0.00 0.38 0.00 96 1011.4
20260504224515 10 210 1.6 3.2 0.00 0.38 0.38 96 1011.5
20260504223007 11 152 1.6 3.2 0.00 0.38 0.38 96 1011.6
20260504221542 11 152 0.0 1.6 0.00 0.38 0.38 96 1011.6
20260504220026 11 152 0.0 3.2 0.00 0.38 0.38 96 1011.8
20260504214549 11 152 0.0 1.6 0.00 0.38 0.38 96 1011.9
20260504213008 11 152 0.0 1.6 0.00 0.38 0.38 96 1012.1
20260504211549 12 152 0.0 1.6 0.00 0.38 0.38 95 1012.1
20260504210054 12 152 0.0 0.0 0.00 0.38 0.38 96 1012.3
20260504204549 12 152 0.0 3.2 0.00 0.43 0.38 96 1012.3
20260504203012 12 152 0.0 1.6 0.00 0.43 0.38 96 1012.4
20260504201527 12 152 0.0 0.0 0.00 0.43 0.38 95 1012.3
20260504200055 12 152 0.0 1.6 0.00 0.43 0.38 95 1012.2
20260504194533 12 152 0.0 1.6 0.00 0.43 0.38 95 1012.0
20260504193056 12 152 0.0 1.6 0.00 0.43 0.38 95 1011.9
20260504191523 12 152 0.0 1.6 0.00 0.43 0.38 94 1011.8
20260504190100 12 152 0.0 1.6 0.00 0.43 0.38 94 1011.8
20260504184526 12 152 0.0 0.0 0.00 1.17 0.38 94 1011.6
20260504183003 13 152 0.0 3.2 0.00 1.17 0.38 94 1011.5
20260504181531 13 152 0.0 1.6 0.05 1.17 0.38 93 1011.4
20260504180100 13 152 0.0 3.2 0.05 1.17 0.38 93 1011.4
20260504174526 13 152 0.0 3.2 0.05 1.17 0.38 93 1011.7
20260504173101 13 152 0.0 3.2 0.05 1.17 0.38 92 1011.8
20260504171538 13 104 0.0 3.2 0.03 1.14 0.33 91 1011.9
20260504120108 16 342 1.6 6.4 0.00 1.12 0.03 86 1013.0
20260504081527 12 173 1.6 4.8 0.00 1.55 0.03 98 1013.6